[[{"header":{"parameterUnit":"m.s-1","parameterCategory":1,"la1":30.2991,"la2":30.254,"lo1":-89.0895,"lo2":-89.0444,"dy":0.0017,"dx":0.0017,"nx":28,"ny":28,"refTime":"2025-01-13T09:00:00:Z","depth":0,"parameterNumber":2,"parameterNumberName":"U-component_of_WINDS"},"data":[0,0,0,0,0,0,0,0,0,0,0,0,0,0,0,0,0,0,0,0,0,0,0,0,0,0,0,0,0,0,0,0,0,0,0,0,0,0,0,0,0,0,0,0,0,0,0,0,0,0,0,0,0,0,0,0,0,0,-0.9343,-0.9344,0,-0.9442,-0.9443,-0.9445,-0.9424,-0.9422,-0.942,-0.9419,-0.9523,-0.9527,-0.9532,0,0,0,0,0,0,0,0,0,0,0,0,0,-0.9138,-0.9142,-0.9343,-0.9344,-0.9346,-0.9442,-0.9443,-0.9445,-0.9424,-0.9422,-0.942,-0.9418,-0.9521,-0.9527,-0.9532,0,0,0,0,0,0,0,0,0,0,0,0,0,-0.9231,-0.9143,-0.9343,-0.9347,-0.9348,-0.9442,-0.9444,-0.9445,-0.9425,-0.9422,-0.9419,-0.9417,-0.952,-0.9526,-0.9533,-0.963,0,0,-0.9553,-0.9556,0,0,0,0,0,0,0,0,-0.9226,-0.9239,-0.9345,-0.9347,-0.9348,-0.9418,-0.9409,-0.9507,-0.9425,-0.9396,-0.9418,-0.9415,-0.949,-0.9499,-0.9524,-0.9634,-0.9639,-0.9554,-0.9558,-0.9561,-0.9563,0,0,0,0,0,0,0,-0.922,-0.9235,-0.9382,-0.9347,-0.9349,-0.9344,-0.9355,-0.9428,-0.9457,-0.9398,-0.9397,-0.9409,-0.9491,-0.9518,-0.9526,-0.964,-0.9554,-0.956,-0.9564,-0.9567,-0.9835,-0.9838,0,0,0,0,0,0,-0.9211,-0.9229,-0.9379,-0.9385,-0.9279,-0.935,-0.9362,-0.9398,-0.9457,-0.9463,-0.9411,-0.9407,-0.9507,-0.9519,-0.953,-0.9648,-0.9561,-0.9567,-0.9571,-0.9832,-0.9836,-0.9839,0,0,0,0,0,0,-0.9207,-0.9225,-0.9375,-0.9307,-0.9326,-0.9357,-0.9398,-0.9402,-0.9429,-0.9466,-0.9472,-0.9433,-0.9506,-0.9521,-0.9605,-0.9651,-0.957,-0.9576,-0.9829,-0.9834,-0.9838,-0.9884,0,0,0,0,0,0,-0.9201,-0.9224,-0.926,-0.9308,-0.933,-0.9448,-0.9401,-0.9406,-0.944,-0.9436,-0.9488,-0.9494,-0.9505,-0.9595,-0.9612,-0.9659,-0.9582,-0.9825,-0.9831,-0.9836,-0.9878,-0.9889,-0.9899,0,0,0,0,0,-0.9194,-0.927,-0.9262,-0.928,-0.9376,-0.9451,-0.9463,-0.9473,-0.9444,-0.9481,-0.9505,-0.9493,-0.9643,-0.9604,-0.9622,-0.9672,-0.9822,-0.9829,-0.9836,-0.9874,-0.9887,-0.9899,0,0,0,0,0,0,-0.9228,-0.9276,-0.9268,-0.9362,-0.9402,-0.9447,-0.9495,-0.9487,-0.9538,-0.9532,-0.9543,-0.9555,-0.9641,-0.9665,-0.962,-0.9769,-0.9728,-0.9739,-0.9751,-0.9764,-0.9774,-0.9767,-0.9587,0,0,0,0,0,-0.9246,-0.9302,-0.9341,-0.942,-0.944,-0.9464,-0.9497,-0.9501,-0.9544,-0.9561,-0.9591,-0.9634,-0.9691,-0.9728,-0.9783,-0.9881,-0.9892,-0.9924,-0.9935,-0.9943,-0.9953,-1.0007,-1.0022,-0.9862,-0.9862,-0.9862,0,0,-0.9285,-0.9318,-0.9353,-0.9428,-0.9459,-0.9518,-0.9479,-0.9543,-0.9586,-0.9571,-0.9653,-0.9676,-0.9725,-0.9816,-0.9858,-0.9839,-0.9999,-0.9952,-0.9958,-0.9964,-1.0016,-1.0031,-1.0045,-0.9867,-0.9866,-0.9865,0,0,-0.9385,-0.9415,-0.9484,-0.9517,-0.9565,-0.958,-0.9596,-0.9643,-0.9657,-0.9739,-0.9729,-0.9781,-0.9878,-0.9914,-0.9944,-1.0056,-1.0047,-1.0074,-1.0129,-1.0181,-1.0194,-1.0205,-1.0247,-1.0261,-1.0083,-1.0083,-1.0083,0,-0.9428,-0.9515,-0.9521,-0.9586,-0.9619,-0.9606,-0.9677,-0.9708,-0.9772,-0.9796,-0.9773,-0.9895,-0.9926,-1.0027,-1.0054,-1.0078,-1.0099,-1.0069,-1.0191,-1.0203,-1.0213,-1.0253,-1.0269,-1.0086,-1.0086,-1.0086,-1.0085,0,-0.9565,-0.9625,-0.9675,-0.9737,-0.9775,-0.9843,-0.986,-0.9899,-0.9898,-0.9916,-1.0,-1.0037,-1.0098,-1.0122,-1.0123,-1.0222,-1.0209,-1.0188,-1.0148,-1.0232,-1.0269,-1.0284,-1.0091,-1.009,-1.0089,-1.0088,0,0,-0.9692,-0.9755,-0.9773,-0.9801,-0.9852,-0.99,-0.9966,-1.0025,-1.0059,-1.0103,-1.016,-1.0242,-1.0223,-1.0258,-1.0262,-1.0308,-1.0396,-1.0282,-1.0283,-1.0303,-1.0509,-1.0526,-1.0543,-1.0389,-1.0392,-1.0394,-1.0506,0,-0.9799,-0.9916,-0.9923,-1.0029,-1.0086,-1.0073,-1.0131,-1.017,-1.0187,-1.0238,-1.0258,-1.0317,-1.0287,-1.0308,-1.0352,-1.0376,-1.0438,-1.0368,-1.0444,-1.0446,-1.0434,-1.0563,-1.0581,-1.0685,-1.052,-1.0523,-1.0525,0,-0.9939,-0.9987,-1.0099,-1.0142,-1.0166,-1.0218,-1.0273,-1.0321,-1.0364,-1.0374,-1.0412,-1.0409,-1.0478,-1.0434,-1.0529,-1.0481,-1.0512,-1.0529,-1.0533,-1.0542,-1.0492,-1.0578,-1.0718,-1.0734,-1.0548,-1.0546,-1.0544,0,-1.0023,-1.0114,-1.0193,-1.0217,-1.0269,-1.0306,-1.033,-1.037,-1.0405,-1.0453,-1.0476,-1.0531,-1.0562,-1.0605,-1.0618,-1.0584,-1.0714,-1.067,-1.0726,-1.0725,-1.0756,-1.0754,-1.0905,-1.0772,-1.0772,-1.0772,-1.0771,0,-1.0143,-1.0212,-1.0232,-1.028,-1.0358,-1.0365,-1.0441,-1.0463,-1.0498,-1.0551,-1.0543,-1.0594,-1.0607,-1.0659,-1.067,-1.0748,-1.0762,-1.0772,-1.0775,-1.0774,-1.0773,-1.0797,-1.0791,-1.0776,-1.0775,-1.0774,-1.0773,0,-1.025,-1.0266,-1.0351,-1.0393,-1.0405,-1.046,-1.0496,-1.0543,-1.0559,-1.0626,-1.0643,-1.0668,-1.073,-1.0746,-1.082,-1.0827,-1.092,-1.0914,-1.0905,-1.0906,-1.0961,-1.0956,-1.1134,-1.1158,-1.1007,-1.1009,-1.101,0,-1.0327,-1.038,-1.0427,-1.0461,-1.0486,-1.0542,-1.0577,-1.0586,-1.0623,-1.0676,-1.0717,-1.0777,-1.0826,-1.0925,-1.0951,-1.1007,-1.1004,-1.1062,-1.1013,-1.1011,-1.1007,-1.1005,-1.1011,-1.1073,-1.1074,-1.1076,-1.1077,0,-1.0462,-1.0466,-1.0517,-1.0571,-1.0613,-1.0656,-1.0697,-1.0726,-1.0741,-1.0783,-1.0846,-1.0883,-1.0958,-1.1019,-1.1075,-1.11,-1.1092,-1.1092,-1.1108,-1.1109,-1.1103,-1.1109,-1.0933,-1.1088,-1.1087,-1.1086,-1.1086,-1.1085,-1.0558,-1.0604,-1.0644,-1.0701,-1.0733,-1.0771,-1.0817,-1.0838,-1.089,-1.0951,-1.0953,-1.1021,-1.1062,-1.1138,-1.1165,-1.1219,-1.1202,-1.1225,-1.1231,-1.1237,-1.1243,-1.1092,-1.1229,-1.1229,-1.1229,-1.1228,-1.1228,0,-1.0693,-1.0718,-1.077,-1.0827,-1.0872,-1.0858,-1.0903,-1.0942,-1.1002,-1.104,-1.1088,-1.116,-1.1218,-1.1247,-1.1305,-1.1343,-1.134,-1.1358,-1.1356,-1.1362,-1.1254,-1.1235,-1.1359,-1.1359,-1.1359,-1.1359,-1.1359,-1.1359,-1.0769,-1.0848,-1.0857,-1.0951,-1.0975,-1.1041,-1.1068,-1.1104,-1.1135,-1.1215,-1.1263,-1.1281,-1.1316,-1.1376,-1.1429,-1.1436,-1.1459,-1.1479,-1.1484,-1.1383,-1.137,-1.1357,-1.134,-1.1483,-1.1483,-1.1588,-1.1589,-1.159]},{"header":{"parameterUnit":"m.s-1","parameterCategory":1,"la1":30.2991,"la2":30.254,"lo1":-89.0895,"lo2":-89.0444,"dy":0.0017,"dx":0.0017,"nx":28,"ny":28,"refTime":"2025-01-13T09:00:00:Z","depth":0,"parameterNumber":3,"parameterNumberName":"V-component_of_WINDS"},"data":[0,0,0,0,0,0,0,0,0,0,0,0,0,0,0,0,0,0,0,0,0,0,0,0,0,0,0,0,0,0,0,0,0,0,0,0,0,0,0,0,0,0,0,0,0,0,0,0,0,0,0,0,0,0,0,0,0,0,-4.323,-4.3231,0,-4.3338,-4.334,-4.3341,-4.3263,-4.326,-4.3256,-4.3253,-4.3363,-4.3369,-4.3375,0,0,0,0,0,0,0,0,0,0,0,0,0,-4.2953,-4.2958,-4.323,-4.3231,-4.3232,-4.3338,-4.334,-4.3341,-4.3264,-4.326,-4.3256,-4.3252,-4.3361,-4.3368,-4.3375,0,0,0,0,0,0,0,0,0,0,0,0,0,-4.3068,-4.296,-4.3229,-4.3207,-4.3206,-4.3338,-4.334,-4.3342,-4.3265,-4.326,-4.3254,-4.325,-4.3358,-4.3367,-4.3376,-4.3536,0,0,-4.3404,-4.3408,0,0,0,0,0,0,0,0,-4.3062,-4.3079,-4.3209,-4.3208,-4.3208,-4.3282,-4.3282,-4.3407,-4.3266,-4.3242,-4.3253,-4.3247,-4.334,-4.335,-4.3382,-4.3541,-4.3546,-4.3405,-4.3411,-4.3415,-4.3417,0,0,0,0,0,0,0,-4.3054,-4.3074,-4.3272,-4.3211,-4.321,-4.319,-4.3201,-4.3305,-4.3319,-4.3244,-4.3239,-4.3253,-4.3339,-4.3373,-4.3384,-4.3548,-4.3405,-4.3413,-4.3419,-4.3422,-4.3844,-4.3849,0,0,0,0,0,0,-4.3048,-4.3067,-4.3269,-4.3276,-4.3121,-4.3199,-4.3211,-4.3263,-4.3317,-4.3321,-4.3257,-4.3249,-4.336,-4.3373,-4.3387,-4.3579,-4.3415,-4.3423,-4.3428,-4.3838,-4.3845,-4.3851,0,0,0,0,0,0,-4.3043,-4.3067,-4.3265,-4.317,-4.3194,-4.321,-4.3269,-4.3268,-4.3303,-4.3327,-4.3329,-4.329,-4.3357,-4.3375,-4.35,-4.3582,-4.3427,-4.3436,-4.3831,-4.384,-4.3848,-4.3963,0,0,0,0,0,0,-4.3035,-4.3066,-4.3127,-4.3172,-4.3199,-4.3377,-4.3274,-4.3274,-4.3319,-4.3309,-4.3359,-4.3362,-4.3354,-4.3487,-4.3509,-4.3592,-4.3443,-4.3824,-4.3835,-4.3845,-4.3952,-4.3974,-4.3994,0,0,0,0,0,-4.3026,-4.3155,-4.3131,-4.3156,-4.3277,-4.3381,-4.3397,-4.3385,-4.3326,-4.3388,-4.3403,-4.336,-4.3569,-4.35,-4.3525,-4.3611,-4.3819,-4.3832,-4.3845,-4.3943,-4.397,-4.3993,0,0,0,0,0,0,-4.3119,-4.316,-4.3134,-4.3282,-4.3329,-4.3368,-4.3446,-4.3415,-4.3479,-4.3467,-4.3449,-4.3461,-4.3593,-4.3614,-4.3537,-4.3769,-4.3684,-4.3703,-4.3751,-4.3777,-4.3797,-4.379,-4.345,0,0,0,0,0,-4.3156,-4.3239,-4.327,-4.3397,-4.3422,-4.343,-4.3475,-4.3463,-4.351,-4.3529,-4.3554,-4.3601,-4.3677,-4.3728,-4.3799,-4.3954,-4.3964,-4.4025,-4.4046,-4.4063,-4.408,-4.4164,-4.4192,-4.3893,-4.3893,-4.3893,0,0,-4.3235,-4.3268,-4.3321,-4.3417,-4.3452,-4.3537,-4.3448,-4.3541,-4.3604,-4.3543,-4.3664,-4.3684,-4.3735,-4.3876,-4.3939,-4.3898,-4.4164,-4.4079,-4.4093,-4.41,-4.418,-4.4208,-4.4233,-4.3902,-4.39,-4.3899,0,0,-4.3422,-4.3456,-4.3566,-4.3602,-4.3656,-4.3661,-4.3687,-4.3731,-4.3742,-4.3863,-4.3819,-4.3893,-4.4024,-4.4063,-4.41,-4.4301,-4.4265,-4.4325,-4.4434,-4.4516,-4.4539,-4.456,-4.4633,-4.4659,-4.4341,-4.4341,-4.4341,0,-4.3514,-4.3641,-4.3626,-4.3723,-4.3767,-4.3716,-4.3827,-4.3863,-4.3937,-4.3968,-4.392,-4.4085,-4.4115,-4.4265,-4.4314,-4.4346,-4.4375,-4.432,-4.4537,-4.4558,-4.4577,-4.4647,-4.4674,-4.4348,-4.4347,-4.4346,-4.4346,0,-4.3751,-4.3839,-4.3921,-4.3996,-4.4048,-4.4152,-4.4152,-4.4207,-4.4189,-4.4198,-4.4321,-4.4356,-4.4434,-4.4468,-4.4452,-4.4616,-4.4589,-4.454,-4.4455,-4.4613,-4.4678,-4.4704,-4.4358,-4.4356,-4.4354,-4.4352,0,0,-4.4001,-4.4065,-4.4096,-4.4129,-4.4184,-4.4252,-4.4353,-4.443,-4.4478,-4.453,-4.4614,-4.4726,-4.4681,-4.4723,-4.471,-4.4782,-4.494,-4.4724,-4.4725,-4.4764,-4.5124,-4.5162,-4.5193,-4.4915,-4.492,-4.4924,-4.512,0,-4.4192,-4.437,-4.4359,-4.4525,-4.4607,-4.4559,-4.4647,-4.4691,-4.4702,-4.4772,-4.4783,-4.4864,-4.4797,-4.4822,-4.4891,-4.4907,-4.5013,-4.4892,-4.4994,-4.4998,-4.4985,-4.5227,-4.5267,-4.5451,-4.5146,-4.515,-4.5153,0,-4.444,-4.4502,-4.4677,-4.472,-4.4754,-4.4834,-4.4903,-4.4971,-4.5018,-4.5021,-4.5068,-4.5043,-4.5144,-4.5056,-4.5195,-4.5113,-4.5154,-4.5168,-4.5174,-4.5185,-4.5086,-4.5245,-4.5509,-4.5537,-4.5192,-4.5189,-4.5186,0,-4.4606,-4.4733,-4.4855,-4.4884,-4.4937,-4.4994,-4.5019,-4.5062,-4.5108,-4.5168,-4.5199,-4.5269,-4.5309,-4.5364,-4.5358,-4.5294,-4.55,-4.5411,-4.5506,-4.5506,-4.5553,-4.555,-4.5829,-4.5577,-4.5576,-4.5576,-4.5575,0,-4.4822,-4.4931,-4.493,-4.5005,-4.5126,-4.5111,-4.5231,-4.5249,-4.5288,-4.5365,-4.5326,-4.54,-4.5387,-4.546,-4.5456,-4.5572,-4.559,-4.5595,-4.5593,-4.56,-4.5599,-4.5627,-4.5615,-4.5583,-4.5581,-4.558,-4.5579,0,-4.503,-4.5033,-4.5163,-4.5202,-4.5215,-4.5302,-4.5336,-4.5406,-4.5413,-4.5512,-4.5534,-4.5545,-4.5629,-4.5628,-4.5723,-4.572,-4.5864,-4.5846,-4.5849,-4.5846,-4.5941,-4.5933,-4.6248,-4.6289,-4.6009,-4.6012,-4.6014,0,-4.5168,-4.5251,-4.53,-4.5349,-4.5378,-4.5458,-4.5505,-4.5494,-4.5545,-4.5605,-4.5669,-4.5749,-4.5812,-4.5948,-4.5965,-4.6037,-4.6022,-4.6127,-4.6033,-4.6037,-4.6025,-4.6021,-4.603,-4.6147,-4.615,-4.6152,-4.6154,0,-4.5414,-4.5411,-4.5482,-4.5554,-4.5612,-4.5668,-4.5719,-4.5761,-4.5755,-4.5814,-4.59,-4.5949,-4.6046,-4.6127,-4.6197,-4.6221,-4.6188,-4.6184,-4.621,-4.6219,-4.6217,-4.6221,-4.5901,-4.6177,-4.6175,-4.6173,-4.6172,-4.6171,-4.5592,-4.5664,-4.571,-4.579,-4.5827,-4.5876,-4.5944,-4.596,-4.6031,-4.6111,-4.6098,-4.6194,-4.6239,-4.633,-4.636,-4.6434,-4.6397,-4.6435,-4.6444,-4.6454,-4.6466,-4.6204,-4.6447,-4.6446,-4.6445,-4.6445,-4.6444,0,-4.5837,-4.5864,-4.5937,-4.6011,-4.6074,-4.6036,-4.6091,-4.6146,-4.6231,-4.6276,-4.6339,-4.6438,-4.6515,-4.6538,-4.6612,-4.6667,-4.6654,-4.6688,-4.6684,-4.6691,-4.6494,-4.6465,-4.6697,-4.6697,-4.6697,-4.6697,-4.6697,-4.6697,-4.5972,-4.6092,-4.6095,-4.6233,-4.6258,-4.6353,-4.6387,-4.6432,-4.6467,-4.6579,-4.6644,-4.6658,-4.6694,-4.6771,-4.684,-4.6844,-4.6874,-4.6915,-4.6913,-4.673,-4.6704,-4.668,-4.6653,-4.6921,-4.6921,-4.7104,-4.7106,-4.7107]}]]